Home > Weather > Markham > Past weeks

Flag for Canada Weather for the Past 2 Weeks in Markham, Ontario, Canada

Now
36 °F

Passing clouds.


Feels Like: 32 °F
Forecast: 31 / 37 °F
Wind: 5 mph from Northeast

Location: Toronto Buttonville

Current Time: Feb 8, 2016 at 1:29:33 AM

Latest Report: Feb 8, 2016 at 1:00 AM


Visibility: 11 mi

Pressure: 29.81 "Hg

Humidity: 81%

Dew point: 30 °F

Location of MarkhamLocation

Historic Weather in Markham — Graph

°F

Markham Temperature Yesterday

Maximum temperature yesterday: 39 °F (at 12:00 PM)
Minimum temperature yesterday: 27 °F (at 7:00 AM)
Average temperature yesterday: 34 °F

High & Low Weather Summary for the Past Weeks

 TemperatureHumidityPressure
High59 °F (Feb 3, 3:00 PM)100% (Jan 31, 6:00 PM)30.36 "Hg (Jan 31, 6:00 PM)
Low12 °F (Jan 24, 3:00 AM)34% (Feb 3, 4:00 PM)29.44 "Hg (Feb 1, 12:00 AM)
Average33 °F74%29.92 "Hg
* Reported Midnight between Jan 23 and Jan 24 — Midnight between Feb 7 and Feb 8, Markham, Weather by CustomWeather, © 2016

Note: Actual official high and low records may vary slightly from our data, if they occured in-between our weather recording intervals... More about our weather records

Advertising

Markham Weather History for the Previous 24 Hours

 ConditionsComfort  
Time TempWeatherWind HumidityBarometerVisibility
12:00 AM
Mon, Feb 8
36 °FPassing clouds.6 mph81%29.84 "Hg11 mi
11:00 PM
Sun, Feb 7
37 °FPassing clouds.7 mph75%29.86 "Hg12 mi
10:00 PM37 °FMostly cloudy.6 mph75%29.87 "Hg11 mi
9:00 PM36 °FMostly cloudy.14 mph87%29.88 "Hg11 mi
8:00 PM36 °FPassing clouds.15 mph81%29.90 "Hg11 mi
7:00 PM36 °FPassing clouds.12 mph81%29.91 "Hg12 mi
6:00 PM37 °FPassing clouds.10 mph75%29.90 "Hg12 mi
5:00 PM37 °FPartly sunny.14 mph75%29.92 "Hg12 mi
4:00 PM37 °FMore clouds than sun.9 mph70%29.93 "Hg12 mi
3:00 PM39 °FOvercast.10 mph65%29.95 "Hg12 mi
2:00 PM39 °FMostly cloudy.14 mph61%29.96 "Hg12 mi
1:00 PM39 °FMore clouds than sun.12 mph65%29.99 "Hg12 mi
12:00 PM39 °FMore clouds than sun.12 mph65%30.01 "Hg12 mi
11:00 AM37 °FMostly cloudy.7 mph75%30.03 "Hg12 mi
10:00 AM36 °FOvercast.7 mph75%30.03 "Hg12 mi
9:00 AM32 °FScattered clouds.2 mph80%30.05 "Hg10 mi
8:00 AM28 °FPartly sunny.No wind86%30.07 "Hg10 mi
7:00 AM27 °FPassing clouds.2 mph86%30.09 "Hg10 mi
6:00 AM28 °FPartly cloudy.5 mph86%30.10 "Hg13 mi
5:00 AM28 °FPassing clouds.2 mph80%30.11 "Hg10 mi
4:00 AM28 °FPassing clouds.2 mph80%30.12 "Hg11 mi
3:00 AM28 °FPassing clouds.3 mph80%30.11 "Hg15 mi
2:00 AM28 °FPassing clouds.3 mph80%30.11 "Hg15 mi
1:00 AM30 °FPassing clouds.5 mph75%30.12 "Hg15 mi
Weather by CustomWeather, © 2016

See weather overviewHow to use our weather pages